TimeCST,TemperatureF,Dew PointF,Humidity,Sea Level PressureIn,VisibilityMPH,Wind Direction,Wind SpeedMPH,Gust SpeedMPH,PrecipitationIn,Events,Conditions,WindDirDegrees,DateUTC
12:15 AM,35.6,28.4,75,29.97,10.0,SSW,3.5,-,N/A,,Clear,200,2012-11-30 06:15:00
12:35 AM,35.6,28.4,75,29.96,10.0,SSE,3.5,-,N/A,,Clear,160,2012-11-30 06:35:00
12:55 AM,37.4,28.4,70,29.96,10.0,South,5.8,-,N/A,,Clear,180,2012-11-30 06:55:00
1:15 AM,35.6,26.6,70,29.96,10.0,SSW,3.5,-,N/A,,Clear,200,2012-11-30 07:15:00
1:35 AM,33.8,26.6,75,29.96,10.0,SSW,5.8,-,N/A,,Clear,210,2012-11-30 07:35:00
1:55 AM,33.8,28.4,81,29.96,10.0,Calm,Calm,-,N/A,,Clear,0,2012-11-30 07:55:00
2:15 AM,32.0,26.6,80,29.95,10.0,SW,4.6,-,N/A,,Clear,220,2012-11-30 08:15:00
2:35 AM,33.8,26.6,75,29.94,10.0,SSW,9.2,-,N/A,,Clear,210,2012-11-30 08:35:00
2:55 AM,35.6,26.6,70,29.94,10.0,SSW,8.1,-,N/A,,Clear,200,2012-11-30 08:55:00
3:15 AM,33.8,26.6,75,29.92,10.0,SSW,6.9,-,N/A,,Clear,200,2012-11-30 09:15:00
3:35 AM,33.8,26.6,75,29.91,10.0,SW,4.6,-,N/A,,Clear,230,2012-11-30 09:35:00
3:55 AM,33.8,26.6,75,29.90,10.0,WSW,4.6,-,N/A,,Clear,250,2012-11-30 09:55:00
4:15 AM,35.6,26.6,70,29.90,10.0,West,3.5,-,N/A,,Clear,260,2012-11-30 10:15:00
4:35 AM,37.4,26.6,65,29.89,10.0,West,4.6,-,N/A,,Clear,260,2012-11-30 10:35:00
4:55 AM,35.6,26.6,70,29.88,10.0,Calm,Calm,-,N/A,,Clear,0,2012-11-30 10:55:00
5:15 AM,39.2,26.6,61,29.87,10.0,SSE,3.5,-,N/A,,Clear,150,2012-11-30 11:15:00
5:35 AM,39.2,24.8,56,29.87,10.0,NE,4.6,-,N/A,,Clear,40,2012-11-30 11:35:00
5:55 AM,37.4,26.6,65,29.87,10.0,WNW,5.8,-,N/A,,Clear,290,2012-11-30 11:55:00
6:15 AM,37.4,24.8,60,29.87,10.0,North,3.5,-,N/A,,Clear,360,2012-11-30 12:15:00
6:35 AM,41.0,24.8,53,29.86,10.0,East,3.5,-,N/A,,Clear,80,2012-11-30 12:35:00
6:55 AM,39.2,24.8,56,29.86,10.0,NE,4.6,-,N/A,,Clear,40,2012-11-30 12:55:00
7:15 AM,39.2,24.8,56,29.86,10.0,South,3.5,-,N/A,,Clear,180,2012-11-30 13:15:00
7:35 AM,39.2,24.8,56,29.86,10.0,SSW,6.9,-,N/A,,Clear,210,2012-11-30 13:35:00
7:55 AM,44.6,24.8,46,29.86,10.0,Calm,Calm,-,N/A,,Clear,0,2012-11-30 13:55:00
8:15 AM,41.0,24.8,53,29.86,10.0,Calm,Calm,-,N/A,,Clear,0,2012-11-30 14:15:00
8:35 AM,41.0,24.8,53,29.86,10.0,SE,6.9,-,N/A,,Clear,130,2012-11-30 14:35:00
8:55 AM,41.0,26.6,57,29.85,10.0,Calm,Calm,-,N/A,,Clear,0,2012-11-30 14:55:00
9:15 AM,44.6,26.6,49,29.84,10.0,SSE,6.9,-,N/A,,Clear,150,2012-11-30 15:15:00
9:35 AM,44.6,26.6,49,29.83,10.0,SSE,5.8,-,N/A,,Clear,160,2012-11-30 15:35:00
9:55 AM,48.2,26.6,43,29.82,10.0,Calm,Calm,-,N/A,,Clear,0,2012-11-30 15:55:00
10:15 AM,50.0,28.4,43,29.81,10.0,NW,4.6,-,N/A,,Clear,310,2012-11-30 16:15:00
10:35 AM,53.6,26.6,35,29.81,10.0,West,5.8,-,N/A,,Clear,280,2012-11-30 16:35:00
10:55 AM,50.0,30.2,47,29.81,10.0,SSE,4.6,-,N/A,,Clear,150,2012-11-30 16:55:00
11:15 AM,50.0,28.4,43,29.81,10.0,East,3.5,-,N/A,,Clear,90,2012-11-30 17:15:00
11:35 AM,53.6,28.4,38,29.80,10.0,South,10.4,18.4,N/A,,Clear,180,2012-11-30 17:35:00
11:55 AM,55.4,28.4,36,29.79,10.0,WSW,8.1,-,N/A,,Clear,250,2012-11-30 17:55:00
12:15 PM,57.2,28.4,33,29.77,10.0,SW,11.5,-,N/A,,Clear,230,2012-11-30 18:15:00
12:35 PM,57.2,28.4,33,29.77,10.0,SW,8.1,-,N/A,,Clear,220,2012-11-30 18:35:00
12:55 PM,57.2,28.4,33,29.76,10.0,SW,18.4,23.0,N/A,,Clear,230,2012-11-30 18:55:00
1:15 PM,55.4,28.4,36,29.75,10.0,SW,12.7,21.9,N/A,,Clear,230,2012-11-30 19:15:00
1:35 PM,57.2,28.4,33,29.74,10.0,WSW,17.3,24.2,N/A,,Clear,240,2012-11-30 19:35:00
1:55 PM,57.2,28.4,33,29.73,10.0,SW,19.6,24.2,N/A,,Clear,230,2012-11-30 19:55:00
2:15 PM,57.2,28.4,33,29.72,10.0,WSW,16.1,24.2,N/A,,Clear,240,2012-11-30 20:15:00
2:35 PM,57.2,30.2,36,29.72,10.0,SW,16.1,21.9,N/A,,Clear,230,2012-11-30 20:35:00
2:55 PM,57.2,30.2,36,29.70,10.0,SW,21.9,25.3,N/A,,Clear,230,2012-11-30 20:55:00
3:15 PM,57.2,30.2,36,29.69,10.0,SW,15.0,27.6,N/A,,Clear,230,2012-11-30 21:15:00
3:35 PM,55.4,30.2,38,29.70,10.0,WSW,13.8,18.4,N/A,,Clear,240,2012-11-30 21:35:00
3:55 PM,55.4,30.2,38,29.68,10.0,West,3.5,-,N/A,,Clear,260,2012-11-30 21:55:00
4:15 PM,55.4,30.2,38,29.68,10.0,SSE,3.5,-,N/A,,Clear,150,2012-11-30 22:15:00
4:35 PM,53.6,30.2,41,29.68,10.0,North,3.5,-,N/A,,Clear,10,2012-11-30 22:35:00
4:55 PM,53.6,30.2,41,29.68,10.0,SW,3.5,-,N/A,,Clear,230,2012-11-30 22:55:00
5:15 PM,55.4,28.4,36,29.67,10.0,WSW,12.7,23.0,N/A,,Clear,250,2012-11-30 23:15:00
5:35 PM,55.4,30.2,38,29.67,10.0,WSW,10.4,18.4,N/A,,Clear,240,2012-11-30 23:35:00
5:55 PM,55.4,30.2,38,29.66,10.0,West,12.7,23.0,N/A,,Clear,260,2012-11-30 23:55:00
6:15 PM,55.4,30.2,38,29.66,10.0,West,17.3,23.0,N/A,,Clear,260,2012-12-01 00:15:00
6:35 PM,55.4,30.2,38,29.65,10.0,WSW,20.7,32.2,N/A,,Clear,240,2012-12-01 00:35:00
6:55 PM,55.4,30.2,38,29.65,10.0,WSW,23.0,33.4,N/A,,Clear,240,2012-12-01 00:55:00
7:15 PM,55.4,30.2,38,29.66,10.0,WSW,19.6,27.6,N/A,,Clear,240,2012-12-01 01:15:00
7:35 PM,55.4,30.2,38,29.65,10.0,SW,16.1,26.5,N/A,,Clear,230,2012-12-01 01:35:00
7:55 PM,55.4,30.2,38,29.63,10.0,WSW,25.3,34.5,N/A,,Clear,240,2012-12-01 01:55:00
8:15 PM,55.4,28.4,36,29.63,10.0,WSW,28.8,38.0,N/A,,Clear,250,2012-12-01 02:15:00
8:35 PM,55.4,28.4,36,29.63,10.0,WSW,28.8,41.4,N/A,,Clear,240,2012-12-01 02:35:00
8:55 PM,55.4,28.4,36,29.65,10.0,WSW,25.3,33.4,N/A,,Clear,240,2012-12-01 02:55:00
9:15 PM,53.6,28.4,38,29.64,10.0,SW,23.0,32.2,N/A,,Clear,230,2012-12-01 03:15:00
9:35 PM,53.6,28.4,38,29.65,10.0,WSW,24.2,32.2,N/A,,Clear,240,2012-12-01 03:35:00
9:55 PM,53.6,28.4,38,29.66,10.0,WSW,23.0,31.1,N/A,,Clear,240,2012-12-01 03:55:00
10:15 PM,53.6,28.4,38,29.67,10.0,WSW,25.3,35.7,N/A,,Clear,240,2012-12-01 04:15:00
10:35 PM,53.6,28.4,38,29.68,10.0,WSW,23.0,35.7,N/A,,Clear,240,2012-12-01 04:35:00
10:55 PM,53.6,28.4,38,29.68,10.0,WSW,21.9,29.9,N/A,,Clear,240,2012-12-01 04:55:00
11:15 PM,53.6,28.4,38,29.69,10.0,WSW,19.6,28.8,N/A,,Clear,240,2012-12-01 05:15:00
11:35 PM,53.6,28.4,38,29.70,10.0,WSW,15.0,21.9,N/A,,Clear,240,2012-12-01 05:35:00
11:55 PM,53.6,28.4,38,29.71,10.0,WSW,11.5,-,N/A,,Clear,250,2012-12-01 05:55:00